JST509 YSSY-YMML

Flight info

Callsign JST509
Flight time N/A
Altitude 28000
Route GROOK1/16R WOL H65 LEECE Q29 ML
Aircraft A320/M-SDE3FGHIRWY/LB1

Departure

Time 2026-05-05 07:28
Airport Sydney Kingsford Smith International Airport (YSSY)

Arrival

Time N/A
Airport Melbourne Airport (YMML)
Time Latitude Longitude Altitude Speed Heading
2026-05-05 06:39 -33.93564 151.17764 30 ft 0 kts 280°
2026-05-05 07:03 -33.93567 151.17789 30 ft 3 kts 268°
2026-05-05 07:03 -33.93562 151.17819 30 ft 3 kts 233°
2026-05-05 07:03 -33.93548 151.17833 30 ft 1 kts 187°
2026-05-05 07:03 -33.93543 151.17833 30 ft 0 kts 187°
2026-05-05 07:07 -33.93558 151.17831 30 ft 4 kts 188°
2026-05-05 07:07 -33.93595 151.17824 30 ft 7 kts 188°
2026-05-05 07:07 -33.93651 151.17813 30 ft 10 kts 189°
2026-05-05 07:07 -33.93731 151.17797 24 ft 16 kts 189°
2026-05-05 07:08 -33.93742 151.17795 26 ft 0 kts 189°
2026-05-05 07:08 -33.93760 151.17791 25 ft 6 kts 189°
2026-05-05 07:08 -33.93771 151.17789 23 ft 0 kts 189°
2026-05-05 07:09 -33.93801 151.17771 27 ft 0 kts 211°
2026-05-05 07:10 -33.93823 151.17754 30 ft 0 kts 211°
2026-05-05 07:11 -33.93827 151.17750 4 ft 6 kts 211°
2026-05-05 07:11 -33.93823 151.17754 22 ft 0 kts 210°
2026-05-05 07:13 -33.93852 151.17732 24 ft 0 kts 232°
2026-05-05 07:14 -33.93748 151.17691 22 ft 0 kts 338°
2026-05-05 07:14 -33.93820 151.17712 32 ft 766 kts 226°
2026-05-05 07:14 -33.93587 151.17530 21 ft 0 kts 335°
2026-05-05 07:15 -33.93238 151.17525 22 ft 0 kts 319°
2026-05-05 07:15 -33.93293 151.17511 21 ft 0 kts 338°
2026-05-05 07:15 -33.92990 151.17372 19 ft 0 kts
2026-05-05 07:15 -33.92963 151.17304 17 ft 0 kts 282°
2026-05-05 07:16 -33.92963 151.17299 31 ft 0 kts 282°
2026-05-05 07:17 -33.92962 151.17299 17 ft 0 kts 281°
2026-05-05 07:18 -33.92961 151.17299 17 ft 0 kts 281°
2026-05-05 07:20 -33.92948 151.17218 35 ft 0 kts 280°
2026-05-05 07:21 -33.92956 151.17265 22 ft 0 kts 269°
2026-05-05 07:22 -33.93083 151.17421 32 ft 0 kts 269°
2026-05-05 07:22 -33.93113 151.17430 34 ft 0 kts 351°
2026-05-05 07:23 -33.92957 151.17286 19 ft 0 kts 286°
2026-05-05 07:23 -33.92965 151.17320 17 ft 1 kts 286°
2026-05-05 07:23 -33.92965 151.17318 17 ft 0 kts 286°
2026-05-05 07:25 -33.92954 151.17251 17 ft 12 kts 269°
2026-05-05 07:25 -33.93013 151.17183 18 ft 13 kts 193°
2026-05-05 07:25 -33.93061 151.17190 19 ft 0 kts 166°
2026-05-05 07:27 -33.93123 151.17206 19 ft 39 kts 168°
2026-05-05 07:27 -33.93691 151.17355 19 ft 124 kts 168°
2026-05-05 07:27 -33.94717 151.17616 295 ft 162 kts 168°
2026-05-05 07:28 -33.95852 151.17862 1142 ft 171 kts 171°